Flag for U.S.A. Weather past 2 weeks in Wailuku, Hawaii, U.S.A.

Now
72 °F

Light rain. Partly cloudy.


Feels Like: 70 °F
Forecast: 68 / 82 °F
Wind: 18 mph from Northeast

Location: Kahului Airport

Current Time: Dec 17, 2014 at 9:44:48 PM

Latest Report: Dec 17, 2014 at 8:54 PM


Visibility: 10 mi

Pressure: 30.17 "Hg

Humidity: 87%

Dew point: 68 °F

Location of WailukuLocation

Historic Weather in Wailuku — Graph

°F

Wailuku temperature yesterday

Maximum temperature yesterday: 81 °F (at 1:54 PM)
Minimum temperature yesterday: 69 °F (at 4:54 AM)
Average temperature yesterday: 73 °F

Past Weeks' High & Low Weather Summary

 TemperatureHumidityPressure
High84 °F (Dec 5, 12:54 PM)94% (Dec 11, 3:04 AM)30.20 "Hg (Dec 11, 3:04 AM)
Low58 °F (Dec 7, 5:54 AM)43% (Dec 13, 1:54 PM)29.94 "Hg (Dec 3, 3:54 PM)
Average73 °F73%30.08 "Hg
* Reported Dec 2 8:54 PM — Dec 17 8:54 PM, Wailuku, Weather by CustomWeather, © 2014

Note: Actual official high and low records may vary slightly from our data, if they occured in-between our weather recording intervals... More about our weather records

Advertising

Wailuku weather history for previous 24 hours

 ConditionsComfort  
Time TempWeatherWind HumidityBarometerVisibility
8:54 PM
Dec 17
72 °FLight rain. Partly cloudy.18 mph87%30.17 "Hg10 mi
7:54 PM72 °FPassing clouds.16 mph84%30.15 "Hg10 mi
6:54 PM73 °FPassing clouds.16 mph81%30.14 "Hg10 mi
5:54 PM73 °FPassing clouds.16 mph84%30.11 "Hg10 mi
4:54 PM74 °FLight rain. Scattered clouds.17 mph82%30.11 "Hg10 mi
3:54 PM75 °FLight rain. Partly sunny.15 mph82%30.11 "Hg10 mi
2:54 PM79 °FPartly sunny.18 mph67%30.11 "Hg10 mi
1:54 PM80 °FScattered clouds.17 mph64%30.11 "Hg10 mi
12:54 PM82 °FScattered clouds.21 mph58%30.12 "Hg10 mi
11:54 AM81 °FScattered clouds.17 mph58%30.14 "Hg10 mi
10:54 AM81 °FScattered clouds.18 mph58%30.16 "Hg10 mi
9:54 AM80 °FScattered clouds.17 mph60%30.18 "Hg10 mi
8:54 AM75 °FScattered clouds.8 mph66%30.19 "Hg10 mi
7:54 AM67 °FPassing clouds.No wind85%30.18 "Hg10 mi
6:54 AM64 °FClear.3 mph87%30.17 "Hg10 mi
5:54 AM64 °FClear.5 mph87%30.15 "Hg10 mi
4:54 AM66 °FClear.5 mph84%30.13 "Hg10 mi
3:54 AM67 °FPassing clouds.3 mph85%30.12 "Hg10 mi
2:54 AM69 °FClear.3 mph81%30.11 "Hg10 mi
1:54 AM73 °FPassing clouds.3 mph74%30.12 "Hg10 mi
12:54 AM72 °FPassing clouds.17 mph78%30.13 "Hg10 mi
11:54 PM
Dec 16
72 °FPassing clouds.16 mph76%30.14 "Hg10 mi
10:54 PM72 °FPassing clouds.15 mph78%30.14 "Hg10 mi
9:54 PM73 °FPassing clouds.15 mph79%30.14 "Hg10 mi
Weather by CustomWeather, © 2014

See weather overviewHow to use our weather pages